2017-008DG

Last updated on Fri Mar 10 2017 00:15:03 GMT+0000 (Coordinated Universal Time)

1 42050U 17008DG 17068.69496765 .00001587 00000-0 73285-4 0 9991 2 42050 97.5097 130.2897 0009292 174.0026 186.1132 15.21666173 3296

Satellite not in orbit

2017-008DG